Main page
METAR-TAF:

METAR-TAF

Airports :

Limon Municipal Airport

Limon, Colorado, United States

latitude: 39-16-24N, longitude: 103-40-00W, elevation: 5363 ft

Current weather observation

The report was made 47 minutes ago, at 20:55 UTC
Wind 14 mph from the North/Northeast with gusts up to 23 mph
Temperature 88°F
Humidity 18%
Pressure 30.13 in. Hg
Visibility: 10 miles
Clear sky

METAR: KLIC 022055Z AUTO 02012G20KT 10SM CLR 31/04 A3013 RMK AO2 SLP122 T03110039 58003

Time: 15:42 (21:42 UTC)


TAF: missing

Weather observations and forecasts of more than 4000 airports (METAR and TAF reports).

The available stations are represented by yellow and red dots on the map.

Hover mouse over dot to see the name of the station.

Then click to see weather observations and forecasts.

To change the map : click on the green buttons with a black cross to zoom in, on the green button with a dash to zoom out, or on the green arrows for adjacent maps.


METAR-TAF: